Time,TemperatureF,DewpointF,PressureIn,WindDirection,WindDirectionDegrees,WindSpeedMPH,WindSpeedGustMPH,Humidity,HourlyPrecipIn,Conditions,Clouds,dailyrainin,SolarRadiationWatts/m^2,SoftwareType,DateUTC
2013-08-22 00:01:00,70.2,68.4,30.03,SSW,205,0.0,0.0,94,0.00,,CLR,0.00,0.00,VWS V14.01,2013-08-22 04:01:00,
2013-08-22 00:02:00,70.2,68.4,30.03,SSW,205,0.0,1.0,94,0.00,,CLR,0.00,0.00,VWS V14.01,2013-08-22 04:02:00,
2013-08-22 00:07:00,70.1,68.3,30.03,SSW,205,0.0,1.0,94,0.00,,CLR,0.00,0.00,VWS V14.01,2013-08-22 04:07:00,
2013-08-22 00:13:00,70.0,68.2,30.03,SSW,196,0.0,0.0,94,0.00,,CLR,0.00,0.00,VWS V14.01,2013-08-22 04:13:00,
2013-08-22 00:18:00,70.0,68.2,30.03,SSW,200,0.0,3.0,94,0.00,,CLR,0.00,0.00,VWS V14.01,2013-08-22 04:18:00,
2013-08-22 00:23:00,69.9,68.4,30.03,SSW,199,0.0,1.0,95,0.00,,CLR,0.00,0.00,VWS V14.01,2013-08-22 04:23:00,
2013-08-22 00:28:00,69.9,68.4,30.03,SSW,192,0.0,2.0,95,0.00,,CLR,0.00,0.00,VWS V14.01,2013-08-22 04:28:00,
2013-08-22 00:33:00,69.9,68.4,30.03,SSW,200,1.0,2.0,95,0.00,,CLR,0.00,0.00,VWS V14.01,2013-08-22 04:33:00,
2013-08-22 00:38:00,69.8,68.3,30.03,SSW,202,0.0,2.0,95,0.00,,CLR,0.00,0.00,VWS V14.01,2013-08-22 04:38:00,
2013-08-22 00:43:00,69.7,68.2,30.04,SSW,209,2.0,4.0,95,0.00,,CLR,0.00,0.00,VWS V14.01,2013-08-22 04:43:00,
2013-08-22 00:48:00,69.7,68.2,30.04,SSW,212,0.0,4.0,95,0.00,,CLR,0.00,0.00,VWS V14.01,2013-08-22 04:48:00,
2013-08-22 00:53:00,69.6,68.1,30.05,SSW,210,0.0,2.0,95,0.00,,CLR,0.00,0.00,VWS V14.01,2013-08-22 04:53:00,
2013-08-22 00:58:00,69.5,68.0,30.05,SSW,211,0.0,1.0,95,0.00,,CLR,0.00,0.00,VWS V14.01,2013-08-22 04:58:00,
2013-08-22 01:03:00,69.4,67.9,30.04,SSW,210,0.0,1.0,95,0.00,,CLR,0.00,0.00,VWS V14.01,2013-08-22 05:03:00,
2013-08-22 01:09:00,69.4,67.9,30.05,SSW,211,0.0,1.0,95,0.00,,CLR,0.00,0.00,VWS V14.01,2013-08-22 05:09:00,
2013-08-22 01:14:00,69.3,67.8,30.05,SSW,210,0.0,1.0,95,0.00,,CLR,0.00,0.00,VWS V14.01,2013-08-22 05:14:00,
2013-08-22 01:19:00,69.2,67.7,30.05,SSW,211,0.0,1.0,95,0.00,,CLR,0.00,0.00,VWS V14.01,2013-08-22 05:19:00,
2013-08-22 01:24:00,69.1,67.6,30.05,SSW,210,0.0,1.0,95,0.00,,CLR,0.00,0.00,VWS V14.01,2013-08-22 05:24:00,
2013-08-22 01:29:00,69.0,67.8,30.05,SW,215,0.0,1.0,96,0.00,,CLR,0.00,0.00,VWS V14.01,2013-08-22 05:29:00,
2013-08-22 01:34:00,68.9,67.7,30.05,SW,216,0.0,0.0,96,0.00,,CLR,0.00,0.00,VWS V14.01,2013-08-22 05:34:00,
2013-08-22 01:39:00,68.9,67.7,30.05,SW,216,0.0,0.0,96,0.00,,CLR,0.00,0.00,VWS V14.01,2013-08-22 05:39:00,
2013-08-22 01:44:00,68.8,67.3,30.05,SW,216,0.0,0.0,95,0.00,,CLR,0.00,0.00,VWS V14.01,2013-08-22 05:44:00,
2013-08-22 01:49:00,68.8,67.3,30.05,SW,216,0.0,0.0,95,0.00,,CLR,0.00,0.00,VWS V14.01,2013-08-22 05:49:00,
2013-08-22 01:54:00,68.7,67.2,30.05,SW,215,0.0,0.0,95,0.00,,CLR,0.00,0.00,VWS V14.01,2013-08-22 05:54:00,
2013-08-22 01:59:00,68.7,67.2,30.05,SW,215,0.0,0.0,95,0.00,,CLR,0.00,0.00,VWS V14.01,2013-08-22 05:59:00,
2013-08-22 02:05:00,68.6,67.4,30.05,SW,216,0.0,0.0,96,0.00,,CLR,0.00,0.00,VWS V14.01,2013-08-22 06:05:00,
2013-08-22 02:10:00,68.6,67.4,30.04,SW,216,0.0,0.0,96,0.00,,CLR,0.00,0.00,VWS V14.01,2013-08-22 06:10:00,
2013-08-22 02:15:00,68.5,67.3,30.04,SW,216,0.0,1.0,96,0.00,,CLR,0.00,0.00,VWS V14.01,2013-08-22 06:15:00,
2013-08-22 02:20:00,68.5,67.3,30.04,SW,216,0.0,0.0,96,0.00,,CLR,0.00,0.00,VWS V14.01,2013-08-22 06:20:00,
2013-08-22 02:25:00,68.4,67.2,30.04,SW,216,0.0,3.0,96,0.00,,CLR,0.00,0.00,VWS V14.01,2013-08-22 06:25:00,
2013-08-22 02:30:00,68.4,67.2,30.04,SW,216,0.0,0.0,96,0.00,,CLR,0.00,0.00,VWS V14.01,2013-08-22 06:30:00,
2013-08-22 02:35:00,68.4,67.2,30.04,SSW,213,0.0,1.0,96,0.00,,CLR,0.00,0.00,VWS V14.01,2013-08-22 06:35:00,
2013-08-22 02:41:00,68.4,67.2,30.03,SSW,213,0.0,0.0,96,0.00,,CLR,0.00,0.00,VWS V14.01,2013-08-22 06:41:00,
2013-08-22 02:46:00,68.3,67.1,30.03,SSW,213,0.0,1.0,96,0.00,,CLR,0.00,0.00,VWS V14.01,2013-08-22 06:46:00,
2013-08-22 02:51:00,68.3,67.1,30.03,SSW,213,0.0,0.0,96,0.00,,CLR,0.00,0.00,VWS V14.01,2013-08-22 06:51:00,
2013-08-22 02:56:00,68.3,67.1,30.03,SSW,213,0.0,0.0,96,0.00,,CLR,0.00,0.00,VWS V14.01,2013-08-22 06:56:00,
2013-08-22 03:01:00,68.3,67.1,30.03,SSW,213,0.0,0.0,96,0.00,,CLR,0.00,0.00,VWS V14.01,2013-08-22 07:01:00,
2013-08-22 03:06:00,68.3,67.1,30.03,SSW,212,0.0,2.0,96,0.00,,CLR,0.00,0.00,VWS V14.01,2013-08-22 07:06:00,
2013-08-22 03:11:00,68.3,67.1,30.03,SSW,211,0.0,2.0,96,0.00,,CLR,0.00,0.00,VWS V14.01,2013-08-22 07:11:00,
2013-08-22 03:16:00,68.3,67.1,30.03,SSW,212,0.0,0.0,96,0.00,,CLR,0.00,0.00,VWS V14.01,2013-08-22 07:16:00,
2013-08-22 03:21:00,68.3,67.1,30.03,SSW,212,0.0,0.0,96,0.00,,CLR,0.00,0.00,VWS V14.01,2013-08-22 07:21:00,
2013-08-22 03:26:00,68.2,67.0,30.02,SSW,212,0.0,1.0,96,0.00,,CLR,0.00,0.00,VWS V14.01,2013-08-22 07:26:00,
2013-08-22 03:31:00,68.2,67.0,30.03,SSW,211,0.0,0.0,96,0.00,,CLR,0.00,0.00,VWS V14.01,2013-08-22 07:31:00,
2013-08-22 03:36:00,68.2,67.0,30.03,SSW,212,0.0,0.0,96,0.00,,CLR,0.00,0.00,VWS V14.01,2013-08-22 07:36:00,
2013-08-22 03:41:00,68.2,67.0,30.03,SSW,212,0.0,0.0,96,0.00,,CLR,0.00,0.00,VWS V14.01,2013-08-22 07:41:00,
2013-08-22 03:46:00,68.1,66.9,30.02,SSW,211,0.0,0.0,96,0.00,,CLR,0.00,0.00,VWS V14.01,2013-08-22 07:46:00,
2013-08-22 03:52:00,68.1,66.9,30.02,SSW,212,1.0,1.0,96,0.00,,CLR,0.00,0.00,VWS V14.01,2013-08-22 07:52:00,
2013-08-22 03:57:00,68.1,66.9,30.02,SSW,212,0.0,0.0,96,0.00,,CLR,0.00,0.00,VWS V14.01,2013-08-22 07:57:00,
2013-08-22 04:02:00,68.1,66.9,30.02,SSW,211,0.0,0.0,96,0.00,,CLR,0.00,0.00,VWS V14.01,2013-08-22 08:02:00,
2013-08-22 04:07:00,68.0,66.8,30.02,SSW,212,0.0,1.0,96,0.00,,CLR,0.00,0.00,VWS V14.01,2013-08-22 08:07:00,
2013-08-22 04:12:00,68.0,66.8,30.01,SSW,212,0.0,0.0,96,0.00,,CLR,0.00,0.00,VWS V14.01,2013-08-22 08:12:00,
2013-08-22 04:17:00,68.0,67.1,30.01,SSW,212,0.0,1.0,97,0.00,,CLR,0.00,0.00,VWS V14.01,2013-08-22 08:17:00,
2013-08-22 04:22:00,67.9,67.0,30.01,SSW,212,0.0,1.0,97,0.00,,CLR,0.00,0.00,VWS V14.01,2013-08-22 08:22:00,
2013-08-22 04:27:00,67.9,67.0,30.01,SSW,211,0.0,1.0,97,0.00,,CLR,0.00,0.00,VWS V14.01,2013-08-22 08:27:00,
2013-08-22 04:32:00,67.8,66.9,30.01,SSW,209,0.0,2.0,97,0.00,,CLR,0.00,0.00,VWS V14.01,2013-08-22 08:32:00,
2013-08-22 04:37:00,67.7,66.8,30.00,SSW,209,0.0,1.0,97,0.00,,CLR,0.00,0.00,VWS V14.01,2013-08-22 08:37:00,
2013-08-22 04:42:00,67.6,66.7,30.00,SSW,210,0.0,5.0,97,0.00,,CLR,0.00,0.00,VWS V14.01,2013-08-22 08:42:00,
2013-08-22 04:47:00,67.6,66.7,30.00,SSW,210,0.0,3.0,97,0.00,,CLR,0.00,0.00,VWS V14.01,2013-08-22 08:47:00,
2013-08-22 04:53:00,67.5,66.6,30.00,SSW,202,0.0,2.0,97,0.00,,CLR,0.00,0.00,VWS V14.01,2013-08-22 08:53:00,
2013-08-22 04:58:00,67.5,66.6,30.00,South,172,0.0,2.0,97,0.00,,CLR,0.00,0.00,VWS V14.01,2013-08-22 08:58:00,
2013-08-22 05:03:00,67.4,66.5,30.00,SSW,200,0.0,1.0,97,0.00,,CLR,0.00,0.00,VWS V14.01,2013-08-22 09:03:00,
2013-08-22 05:08:00,67.4,66.5,30.00,SSW,199,0.0,1.0,97,0.00,,CLR,0.00,0.00,VWS V14.01,2013-08-22 09:08:00,
2013-08-22 05:13:00,67.3,66.4,30.00,SSW,200,0.0,1.0,97,0.00,,CLR,0.00,0.00,VWS V14.01,2013-08-22 09:13:00,
2013-08-22 05:18:00,67.3,66.4,30.00,SSW,202,0.0,3.0,97,0.00,,CLR,0.00,0.00,VWS V14.01,2013-08-22 09:18:00,
2013-08-22 05:23:00,67.3,66.4,30.00,SSW,207,0.0,4.0,97,0.00,,CLR,0.00,0.00,VWS V14.01,2013-08-22 09:23:00,
2013-08-22 05:28:00,67.3,66.4,30.00,SSW,206,0.0,2.0,97,0.00,,CLR,0.00,0.00,VWS V14.01,2013-08-22 09:28:00,
2013-08-22 05:33:00,67.2,66.3,30.00,SSW,206,0.0,0.0,97,0.00,,CLR,0.00,0.00,VWS V14.01,2013-08-22 09:33:00,
2013-08-22 05:39:00,67.2,66.3,30.00,SSW,207,0.0,1.0,97,0.00,,CLR,0.00,0.00,VWS V14.01,2013-08-22 09:39:00,
2013-08-22 05:44:00,67.1,66.2,30.00,SSW,206,0.0,0.0,97,0.00,,CLR,0.00,0.00,VWS V14.01,2013-08-22 09:44:00,
2013-08-22 05:49:00,67.1,66.2,30.00,SSW,206,0.0,0.0,97,0.00,,CLR,0.00,0.00,VWS V14.01,2013-08-22 09:49:00,
2013-08-22 05:54:00,67.0,66.1,30.01,SSW,206,0.0,0.0,97,0.00,,CLR,0.00,0.00,VWS V14.01,2013-08-22 09:54:00,
2013-08-22 05:59:00,67.0,66.1,30.01,SSW,207,0.0,0.0,97,0.00,,CLR,0.00,0.00,VWS V14.01,2013-08-22 09:59:00,
2013-08-22 06:04:00,67.0,66.1,30.01,SSW,207,0.0,0.0,97,0.00,,CLR,0.00,0.00,VWS V14.01,2013-08-22 10:04:00,
2013-08-22 06:09:00,67.0,66.1,30.01,SSW,207,0.0,1.0,97,0.00,,CLR,0.00,0.00,VWS V14.01,2013-08-22 10:09:00,
2013-08-22 06:14:00,66.9,66.0,30.02,SSW,207,0.0,0.0,97,0.00,,CLR,0.00,0.00,VWS V14.01,2013-08-22 10:14:00,
2013-08-22 06:19:00,66.9,66.0,30.02,SSW,207,0.0,0.0,97,0.00,,CLR,0.00,0.00,VWS V14.01,2013-08-22 10:19:00,
2013-08-22 06:24:00,66.9,66.0,30.02,SSW,207,0.0,0.0,97,0.00,,CLR,0.00,0.00,VWS V14.01,2013-08-22 10:24:00,
2013-08-22 06:30:00,67.0,66.4,30.02,SSW,206,0.0,1.0,98,0.00,,CLR,0.00,0.00,VWS V14.01,2013-08-22 10:30:00,
2013-08-22 06:35:00,67.0,66.4,30.02,SSW,207,0.0,1.0,98,0.00,,CLR,0.00,0.00,VWS V14.01,2013-08-22 10:35:00,
2013-08-22 06:40:00,67.0,66.4,30.03,SSW,206,0.0,1.0,98,0.00,,CLR,0.00,5.00,VWS V14.01,2013-08-22 10:40:00,
2013-08-22 06:45:00,67.0,66.4,30.03,SSW,207,0.0,0.0,98,0.00,,CLR,0.00,7.00,VWS V14.01,2013-08-22 10:45:00,
2013-08-22 06:50:00,67.0,66.4,30.03,SSW,207,0.0,0.0,98,0.00,,CLR,0.00,9.00,VWS V14.01,2013-08-22 10:50:00,
2013-08-22 08:27:00,68.9,68.3,30.03,SW,215,0.0,5.0,98,0.00,,CLR,0.00,185.00,VWS V14.01,2013-08-22 12:27:00,
2013-08-22 08:32:00,69.2,68.6,30.02,SSW,208,4.0,5.0,98,0.00,,CLR,0.00,241.00,VWS V14.01,2013-08-22 12:32:00,
2013-08-22 08:37:00,69.3,68.7,30.03,SSW,209,0.0,4.0,98,0.00,,CLR,0.00,199.00,VWS V14.01,2013-08-22 12:37:00,
2013-08-22 08:42:00,69.7,69.1,30.03,SSW,211,0.0,1.0,98,0.00,,CLR,0.00,221.00,VWS V14.01,2013-08-22 12:42:00,
2013-08-22 08:48:00,70.1,69.5,30.03,SSE,164,2.0,4.0,98,0.00,,CLR,0.00,313.00,VWS V14.01,2013-08-22 12:48:00,
2013-08-22 08:53:00,70.7,69.8,30.02,SSW,195,1.0,4.0,97,0.00,,CLR,0.00,390.00,VWS V14.01,2013-08-22 12:53:00,
2013-08-22 08:58:00,71.3,70.1,30.02,South,171,0.0,5.0,96,0.00,,CLR,0.00,476.00,VWS V14.01,2013-08-22 12:58:00,
2013-08-22 09:01:00,71.9,70.4,30.02,South,172,0.0,1.0,95,0.00,,CLR,0.00,497.00,VWS V14.01,2013-08-22 13:01:00,
2013-08-22 09:06:00,73.3,71.2,30.02,South,182,0.0,1.0,93,0.00,,CLR,0.00,508.00,VWS V14.01,2013-08-22 13:06:00,
2013-08-22 09:11:00,73.8,70.7,30.02,SSW,205,0.0,1.0,90,0.00,,CLR,0.00,410.00,VWS V14.01,2013-08-22 13:11:00,
2013-08-22 09:16:00,74.1,70.7,30.02,SSW,213,0.0,1.0,89,0.00,,CLR,0.00,195.00,VWS V14.01,2013-08-22 13:16:00,
2013-08-22 09:21:00,74.2,70.4,30.02,WSW,240,0.0,2.0,88,0.00,,CLR,0.00,183.00,VWS V14.01,2013-08-22 13:21:00,
2013-08-22 09:26:00,74.3,70.8,30.03,SW,217,3.0,3.0,89,0.00,,CLR,0.00,316.00,VWS V14.01,2013-08-22 13:26:00,
2013-08-22 09:32:00,74.6,70.8,30.02,SW,221,0.0,3.0,88,0.00,,CLR,0.00,388.00,VWS V14.01,2013-08-22 13:32:00,
2013-08-22 09:37:00,74.7,70.6,30.02,SSW,207,0.0,1.0,87,0.00,,CLR,0.00,396.00,VWS V14.01,2013-08-22 13:37:00,
2013-08-22 09:42:00,75.3,71.2,30.02,SW,222,0.0,1.0,87,0.00,,CLR,0.00,459.00,VWS V14.01,2013-08-22 13:42:00,
2013-08-22 09:47:00,75.8,71.3,30.03,WNW,297,0.0,4.0,86,0.00,,CLR,0.00,529.00,VWS V14.01,2013-08-22 13:47:00,
2013-08-22 09:52:00,76.1,70.9,30.03,SW,232,0.0,1.0,84,0.00,,CLR,0.00,378.00,VWS V14.01,2013-08-22 13:52:00,
2013-08-22 09:57:00,76.2,70.3,30.03,NNW,329,0.0,3.0,82,0.00,,CLR,0.00,315.00,VWS V14.01,2013-08-22 13:57:00,
2013-08-22 10:02:00,76.5,70.6,30.03,NNW,330,0.0,1.0,82,0.00,,CLR,0.00,302.00,VWS V14.01,2013-08-22 14:02:00,
2013-08-22 10:07:00,76.5,70.2,30.03,NNW,329,0.0,0.0,81,0.00,,CLR,0.00,276.00,VWS V14.01,2013-08-22 14:07:00,
2013-08-22 10:12:00,76.5,70.2,30.03,North,360,0.0,3.0,81,0.00,,CLR,0.00,287.00,VWS V14.01,2013-08-22 14:12:00,
2013-08-22 10:17:00,76.4,69.8,30.03,North,5,0.0,4.0,80,0.00,,CLR,0.00,264.00,VWS V14.01,2013-08-22 14:17:00,
2013-08-22 10:22:00,76.4,69.8,30.04,North,5,0.0,2.0,80,0.00,,CLR,0.00,257.00,VWS V14.01,2013-08-22 14:22:00,
2013-08-22 10:27:00,76.4,69.8,30.04,North,5,0.0,1.0,80,0.00,,CLR,0.00,265.00,VWS V14.01,2013-08-22 14:27:00,
2013-08-22 10:32:00,76.4,69.4,30.03,NNW,336,2.0,5.0,79,0.00,,CLR,0.00,267.00,VWS V14.01,2013-08-22 14:32:00,
2013-08-22 10:37:00,76.5,70.2,30.03,NNW,336,0.0,0.0,81,0.00,,CLR,0.00,251.00,VWS V14.01,2013-08-22 14:37:00,
2013-08-22 10:42:00,76.5,69.5,30.03,NNW,336,0.0,0.0,79,0.00,,CLR,0.00,299.00,VWS V14.01,2013-08-22 14:42:00,
2013-08-22 10:47:00,76.8,69.8,30.02,NNW,336,0.0,0.0,79,0.00,,CLR,0.00,369.00,VWS V14.01,2013-08-22 14:47:00,
2013-08-22 10:52:00,77.6,70.2,30.03,NNW,336,0.0,3.0,78,0.00,,CLR,0.00,461.00,VWS V14.01,2013-08-22 14:52:00,
2013-08-22 10:57:00,77.7,69.2,30.03,NNW,336,0.0,0.0,75,0.00,,CLR,0.00,415.00,VWS V14.01,2013-08-22 14:57:00,
2013-08-22 11:02:00,78.0,69.8,30.03,NNW,336,0.0,0.0,76,0.00,,CLR,0.00,418.00,VWS V14.01,2013-08-22 15:02:00,
2013-08-22 11:07:00,78.2,69.6,30.03,NNW,336,0.0,3.0,75,0.00,,CLR,0.00,367.00,VWS V14.01,2013-08-22 15:07:00,
2013-08-22 11:12:00,78.4,69.8,30.03,NNW,336,0.0,0.0,75,0.00,,CLR,0.00,439.00,VWS V14.01,2013-08-22 15:12:00,
2013-08-22 11:18:00,78.7,70.5,30.03,ENE,59,0.0,3.0,76,0.00,,CLR,0.00,392.00,VWS V14.01,2013-08-22 15:18:00,
2013-08-22 11:23:00,78.9,70.3,30.03,NW,326,1.0,3.0,75,0.00,,CLR,0.00,359.00,VWS V14.01,2013-08-22 15:23:00,
2013-08-22 11:28:00,78.8,69.8,30.03,NW,323,0.0,5.0,74,0.00,,CLR,0.00,339.00,VWS V14.01,2013-08-22 15:28:00,
2013-08-22 11:33:00,78.7,70.1,30.03,NW,323,0.0,3.0,75,0.00,,CLR,0.00,339.00,VWS V14.01,2013-08-22 15:33:00,
2013-08-22 11:38:00,78.7,70.5,30.03,NW,324,0.0,1.0,76,0.00,,CLR,0.00,559.00,VWS V14.01,2013-08-22 15:38:00,
2013-08-22 11:43:00,79.0,70.4,30.03,NNW,338,0.0,5.0,75,0.00,,CLR,0.00,476.00,VWS V14.01,2013-08-22 15:43:00,
2013-08-22 11:48:00,79.5,71.7,30.03,North,5,0.0,7.0,77,0.00,,CLR,0.00,668.00,VWS V14.01,2013-08-22 15:48:00,
2013-08-22 11:53:00,79.7,70.7,30.03,North,355,0.0,6.0,74,0.00,,CLR,0.00,424.00,VWS V14.01,2013-08-22 15:53:00,
2013-08-22 11:58:00,79.6,71.0,30.03,North,355,0.0,4.0,75,0.00,,CLR,0.00,401.00,VWS V14.01,2013-08-22 15:58:00,
2013-08-22 12:03:00,79.3,70.3,30.02,North,355,0.0,2.0,74,0.00,,CLR,0.00,434.00,VWS V14.01,2013-08-22 16:03:00,
2013-08-22 12:08:00,79.5,71.3,30.02,North,355,0.0,1.0,76,0.00,,CLR,0.00,397.00,VWS V14.01,2013-08-22 16:08:00,
2013-08-22 12:13:00,79.7,70.7,30.02,North,360,1.0,5.0,74,0.00,,CLR,0.00,255.00,VWS V14.01,2013-08-22 16:13:00,
2013-08-22 12:19:00,79.6,70.6,30.02,NW,326,2.0,5.0,74,0.00,,CLR,0.00,250.00,VWS V14.01,2013-08-22 16:19:00,
2013-08-22 12:24:00,79.7,70.7,30.01,NNW,331,1.0,4.0,74,0.00,,CLR,0.00,654.00,VWS V14.01,2013-08-22 16:24:00,
2013-08-22 12:29:00,80.2,71.9,30.01,NW,315,0.0,2.0,76,0.00,,CLR,0.00,742.00,VWS V14.01,2013-08-22 16:29:00,
2013-08-22 12:34:00,81.1,70.4,30.01,NW,323,5.0,6.0,70,0.00,,CLR,0.00,795.00,VWS V14.01,2013-08-22 16:34:00,
2013-08-22 12:39:00,81.7,70.6,30.01,NW,325,5.0,5.0,69,0.00,,CLR,0.00,868.00,VWS V14.01,2013-08-22 16:39:00,
2013-08-22 12:44:00,81.7,70.1,30.00,NW,319,0.0,7.0,68,0.00,,CLR,0.00,253.00,VWS V14.01,2013-08-22 16:44:00,
2013-08-22 12:49:00,81.2,70.9,30.00,WNW,287,2.0,2.0,71,0.00,,CLR,0.00,875.00,VWS V14.01,2013-08-22 16:49:00,
2013-08-22 12:54:00,81.6,71.7,30.00,NW,304,8.0,8.0,72,0.00,,CLR,0.00,860.00,VWS V14.01,2013-08-22 16:54:00,
2013-08-22 12:59:00,81.6,70.0,30.00,WNW,292,5.0,11.0,68,0.00,,CLR,0.00,854.00,VWS V14.01,2013-08-22 16:59:00,
2013-08-22 13:04:00,81.8,70.6,29.99,WNW,298,0.0,5.0,69,0.00,,CLR,0.00,919.00,VWS V14.01,2013-08-22 17:04:00,
2013-08-22 13:09:00,82.2,70.2,29.99,NNW,327,1.0,9.0,67,0.00,,CLR,0.00,1027.00,VWS V14.01,2013-08-22 17:09:00,
2013-08-22 13:14:00,82.5,71.3,29.99,NW,323,0.0,0.0,69,0.00,,CLR,0.00,533.00,VWS V14.01,2013-08-22 17:14:00,
2013-08-22 13:19:00,82.0,70.4,29.99,WNW,303,0.0,4.0,68,0.00,,CLR,0.00,424.00,VWS V14.01,2013-08-22 17:19:00,
2013-08-22 13:24:00,81.5,70.4,29.99,WNW,283,2.0,2.0,69,0.00,,CLR,0.00,513.00,VWS V14.01,2013-08-22 17:24:00,
2013-08-22 13:29:00,81.8,71.1,30.00,NNW,344,2.0,4.0,70,0.00,,CLR,0.00,480.00,VWS V14.01,2013-08-22 17:29:00,
2013-08-22 13:34:00,82.3,70.7,29.99,NW,304,0.0,2.0,68,0.00,,CLR,0.00,749.00,VWS V14.01,2013-08-22 17:34:00,
2013-08-22 13:39:00,82.3,69.8,29.98,NW,313,0.0,1.0,66,0.00,,CLR,0.00,338.00,VWS V14.01,2013-08-22 17:39:00,
2013-08-22 13:44:00,82.1,70.1,29.98,NW,309,1.0,2.0,67,0.00,,CLR,0.00,967.00,VWS V14.01,2013-08-22 17:44:00,
2013-08-22 13:49:00,82.1,70.9,29.98,WSW,257,0.0,1.0,69,0.00,,CLR,0.00,886.00,VWS V14.01,2013-08-22 17:49:00,
2013-08-22 13:54:00,82.3,70.7,29.98,NW,309,0.0,3.0,68,0.00,,CLR,0.00,907.00,VWS V14.01,2013-08-22 17:54:00,
2013-08-22 13:59:00,82.9,71.3,29.98,West,268,1.0,3.0,68,0.00,,CLR,0.00,1093.00,VWS V14.01,2013-08-22 17:59:00,
2013-08-22 14:04:00,83.4,71.7,29.98,WNW,286,4.0,4.0,68,0.00,,CLR,0.00,394.00,VWS V14.01,2013-08-22 18:04:00,
2013-08-22 14:09:00,83.0,70.0,29.98,NNW,340,2.0,5.0,65,0.00,,CLR,0.00,410.00,VWS V14.01,2013-08-22 18:09:00,
2013-08-22 14:14:00,82.8,70.7,29.97,NW,325,1.0,4.0,67,0.00,,CLR,0.00,541.00,VWS V14.01,2013-08-22 18:14:00,
2013-08-22 14:19:00,82.7,71.1,29.97,WNW,295,0.0,3.0,68,0.00,,CLR,0.00,406.00,VWS V14.01,2013-08-22 18:19:00,
2013-08-22 14:24:00,82.5,70.9,29.97,WNW,299,0.0,2.0,68,0.00,,CLR,0.00,415.00,VWS V14.01,2013-08-22 18:24:00,
2013-08-22 14:29:00,82.4,71.2,29.97,NW,314,0.0,0.0,69,0.00,,CLR,0.00,357.00,VWS V14.01,2013-08-22 18:29:00,
2013-08-22 14:34:00,82.2,71.0,29.97,NNW,332,1.0,4.0,69,0.00,,CLR,0.00,318.00,VWS V14.01,2013-08-22 18:34:00,
2013-08-22 14:39:00,82.0,71.3,29.97,SW,226,0.0,0.0,70,0.00,,CLR,0.00,313.00,VWS V14.01,2013-08-22 18:39:00,
2013-08-22 14:45:00,81.7,71.0,29.97,SW,227,1.0,3.0,70,0.00,,CLR,0.00,320.00,VWS V14.01,2013-08-22 18:45:00,
2013-08-22 14:50:00,81.6,71.7,29.96,WNW,283,0.0,1.0,72,0.00,,CLR,0.00,367.00,VWS V14.01,2013-08-22 18:50:00,
2013-08-22 14:55:00,81.8,71.9,29.96,NW,308,0.0,0.0,72,0.00,,CLR,0.00,394.00,VWS V14.01,2013-08-22 18:55:00,
2013-08-22 15:00:00,81.9,71.2,29.95,NW,304,0.0,0.0,70,0.00,,CLR,0.00,448.00,VWS V14.01,2013-08-22 19:00:00,
2013-08-22 15:05:00,82.8,72.4,29.95,NW,319,1.0,4.0,71,0.00,,CLR,0.00,448.00,VWS V14.01,2013-08-22 19:05:00,
2013-08-22 15:10:00,83.5,71.8,29.95,South,183,0.0,5.0,68,0.00,,CLR,0.00,329.00,VWS V14.01,2013-08-22 19:10:00,
2013-08-22 15:15:00,83.8,73.4,29.95,SW,227,0.0,1.0,71,0.00,,CLR,0.00,912.00,VWS V14.01,2013-08-22 19:15:00,
2013-08-22 15:20:00,84.1,72.4,29.95,WSW,250,0.0,4.0,68,0.00,,CLR,0.00,926.00,VWS V14.01,2013-08-22 19:20:00,
2013-08-22 15:25:00,84.6,72.9,29.94,North,360,2.0,4.0,68,0.00,,CLR,0.00,838.00,VWS V14.01,2013-08-22 19:25:00,
2013-08-22 15:30:00,84.7,71.2,29.94,North,355,0.0,1.0,64,0.00,,CLR,0.00,851.00,VWS V14.01,2013-08-22 19:30:00,
2013-08-22 15:35:00,84.8,72.6,29.94,WNW,303,1.0,2.0,67,0.00,,CLR,0.00,830.00,VWS V14.01,2013-08-22 19:35:00,
2013-08-22 15:40:00,85.2,71.7,29.93,NW,318,0.0,4.0,64,0.00,,CLR,0.00,747.00,VWS V14.01,2013-08-22 19:40:00,
2013-08-22 15:45:00,85.5,71.0,29.93,NNW,327,0.0,5.0,62,0.00,,CLR,0.00,722.00,VWS V14.01,2013-08-22 19:45:00,
2013-08-22 15:50:00,85.7,71.7,29.93,SSW,211,4.0,4.0,63,0.00,,CLR,0.00,737.00,VWS V14.01,2013-08-22 19:50:00,
2013-08-22 15:55:00,85.7,71.7,29.93,NW,326,1.0,5.0,63,0.00,,CLR,0.00,717.00,VWS V14.01,2013-08-22 19:55:00,
2013-08-22 16:00:00,85.9,73.2,29.92,SW,229,0.0,4.0,66,0.00,,CLR,0.00,700.00,VWS V14.01,2013-08-22 20:00:00,
2013-08-22 16:05:00,85.6,72.5,29.92,SW,233,1.0,1.0,65,0.00,,CLR,0.00,236.00,VWS V14.01,2013-08-22 20:05:00,
2013-08-22 16:10:00,85.2,73.0,29.92,SSW,209,0.0,3.0,67,0.00,,CLR,0.00,679.00,VWS V14.01,2013-08-22 20:10:00,
2013-08-22 16:15:00,85.4,72.8,29.91,WSW,256,5.0,5.0,66,0.00,,CLR,0.00,629.00,VWS V14.01,2013-08-22 20:15:00,
2013-08-22 16:20:00,85.3,71.8,29.91,WSW,248,0.0,2.0,64,0.00,,CLR,0.00,195.00,VWS V14.01,2013-08-22 20:20:00,
2013-08-22 16:25:00,84.7,71.2,29.91,West,265,0.0,2.0,64,0.00,,CLR,0.00,232.00,VWS V14.01,2013-08-22 20:25:00,
2013-08-22 16:31:00,84.2,71.2,29.92,SSW,205,0.0,3.0,65,0.00,,CLR,0.00,269.00,VWS V14.01,2013-08-22 20:31:00,
2013-08-22 16:36:00,84.4,72.2,29.91,WNW,296,0.0,1.0,67,0.00,,CLR,0.00,496.00,VWS V14.01,2013-08-22 20:36:00,
2013-08-22 16:41:00,84.7,71.6,29.91,West,274,0.0,1.0,65,0.00,,CLR,0.00,355.00,VWS V14.01,2013-08-22 20:41:00,
2013-08-22 16:46:00,84.9,71.8,29.91,WNW,299,0.0,0.0,65,0.00,,CLR,0.00,350.00,VWS V14.01,2013-08-22 20:46:00,
2013-08-22 16:51:00,85.0,71.0,29.91,NW,304,2.0,6.0,63,0.00,,CLR,0.00,531.00,VWS V14.01,2013-08-22 20:51:00,
2013-08-22 16:56:00,85.3,71.8,29.91,NNW,342,1.0,5.0,64,0.00,,CLR,0.00,448.00,VWS V14.01,2013-08-22 20:56:00,
2013-08-22 17:01:00,85.3,71.8,29.91,WSW,250,0.0,1.0,64,0.00,,CLR,0.00,471.00,VWS V14.01,2013-08-22 21:01:00,
2013-08-22 17:06:00,85.3,71.8,29.91,NW,307,1.0,3.0,64,0.00,,CLR,0.00,471.00,VWS V14.01,2013-08-22 21:06:00,
2013-08-22 17:11:00,85.1,71.6,29.91,NW,325,4.0,5.0,64,0.00,,CLR,0.00,441.00,VWS V14.01,2013-08-22 21:11:00,
2013-08-22 17:16:00,85.1,71.6,29.91,WSW,258,0.0,4.0,64,0.00,,CLR,0.00,443.00,VWS V14.01,2013-08-22 21:16:00,
2013-08-22 17:21:00,85.3,71.8,29.91,NW,317,0.0,4.0,64,0.00,,CLR,0.00,425.00,VWS V14.01,2013-08-22 21:21:00,
2013-08-22 17:26:00,85.5,71.9,29.91,WNW,284,5.0,5.0,64,0.00,,CLR,0.00,445.00,VWS V14.01,2013-08-22 21:26:00,
2013-08-22 17:31:00,85.6,71.6,29.91,NE,37,1.0,7.0,63,0.00,,CLR,0.00,178.00,VWS V14.01,2013-08-22 21:31:00,
2013-08-22 17:36:00,85.3,71.3,29.91,West,259,1.0,4.0,63,0.00,,CLR,0.00,257.00,VWS V14.01,2013-08-22 21:36:00,
2013-08-22 17:41:00,84.9,70.9,29.91,WSW,257,0.0,2.0,63,0.00,,CLR,0.00,67.00,VWS V14.01,2013-08-22 21:41:00,
2013-08-22 17:46:00,84.2,70.7,29.91,West,259,0.0,1.0,64,0.00,,CLR,0.00,111.00,VWS V14.01,2013-08-22 21:46:00,
2013-08-22 17:51:00,83.8,70.8,29.91,WSW,257,0.0,1.0,65,0.00,,CLR,0.00,211.00,VWS V14.01,2013-08-22 21:51:00,
2013-08-22 17:56:00,83.6,71.5,29.91,West,273,0.0,1.0,67,0.00,,CLR,0.00,339.00,VWS V14.01,2013-08-22 21:56:00,
2013-08-22 18:01:00,83.6,71.5,29.90,West,273,0.0,1.0,67,0.00,,CLR,0.00,209.00,VWS V14.01,2013-08-22 22:01:00,
2013-08-22 18:06:00,83.7,72.0,29.90,West,273,0.0,0.0,68,0.00,,CLR,0.00,308.00,VWS V14.01,2013-08-22 22:06:00,
2013-08-22 18:11:00,83.9,72.2,29.90,West,276,0.0,2.0,68,0.00,,CLR,0.00,120.00,VWS V14.01,2013-08-22 22:11:00,
2013-08-22 18:17:00,83.9,71.8,29.90,West,277,0.0,1.0,67,0.00,,CLR,0.00,149.00,VWS V14.01,2013-08-22 22:17:00,
2013-08-22 18:22:00,83.8,71.2,29.90,WNW,292,0.0,3.0,66,0.00,,CLR,0.00,260.00,VWS V14.01,2013-08-22 22:22:00,
2013-08-22 18:27:00,83.8,72.1,29.90,WNW,292,0.0,0.0,68,0.00,,CLR,0.00,88.00,VWS V14.01,2013-08-22 22:27:00,
2013-08-22 18:32:00,83.7,71.6,29.89,WNW,292,0.0,1.0,67,0.00,,CLR,0.00,67.00,VWS V14.01,2013-08-22 22:32:00,
2013-08-22 18:37:00,83.6,71.9,29.90,WNW,291,0.0,0.0,68,0.00,,CLR,0.00,67.00,VWS V14.01,2013-08-22 22:37:00,
2013-08-22 18:42:00,83.4,71.7,29.90,WNW,292,0.0,0.0,68,0.00,,CLR,0.00,51.00,VWS V14.01,2013-08-22 22:42:00,
2013-08-22 18:47:00,83.3,72.1,29.89,WNW,291,0.0,0.0,69,0.00,,CLR,0.00,33.00,VWS V14.01,2013-08-22 22:47:00,
2013-08-22 18:52:00,83.0,72.2,29.89,WNW,292,0.0,0.0,70,0.00,,CLR,0.00,23.00,VWS V14.01,2013-08-22 22:52:00,
2013-08-22 18:57:00,82.7,72.3,29.89,WNW,292,0.0,0.0,71,0.00,,CLR,0.00,16.00,VWS V14.01,2013-08-22 22:57:00,
2013-08-22 19:02:00,82.4,72.1,29.89,WNW,292,0.0,0.0,71,0.00,,CLR,0.00,19.00,VWS V14.01,2013-08-22 23:02:00,
2013-08-22 19:07:00,82.1,71.8,29.89,WNW,292,0.0,0.0,71,0.00,,CLR,0.00,21.00,VWS V14.01,2013-08-22 23:07:00,
2013-08-22 19:12:00,81.7,71.8,29.89,WNW,292,0.0,0.0,72,0.00,,CLR,0.00,35.00,VWS V14.01,2013-08-22 23:12:00,
2013-08-22 19:17:00,81.4,71.9,29.89,WNW,292,0.0,0.0,73,0.00,,CLR,0.00,18.00,VWS V14.01,2013-08-22 23:17:00,
2013-08-22 19:22:00,81.1,72.0,29.89,WNW,292,0.0,0.0,74,0.00,,CLR,0.00,18.00,VWS V14.01,2013-08-22 23:22:00,
2013-08-22 19:27:00,80.7,71.7,29.89,WNW,291,0.0,0.0,74,0.00,,CLR,0.00,14.00,VWS V14.01,2013-08-22 23:27:00,
2013-08-22 19:32:00,80.4,71.8,29.89,WNW,292,0.0,0.0,75,0.00,,CLR,0.00,16.00,VWS V14.01,2013-08-22 23:32:00,
2013-08-22 19:37:00,80.0,72.2,29.90,North,355,2.0,8.0,77,0.00,,CLR,0.00,11.00,VWS V14.01,2013-08-22 23:37:00,
2013-08-22 19:43:00,79.2,71.4,29.90,NNW,346,0.0,1.0,77,0.00,,CLR,0.00,7.00,VWS V14.01,2013-08-22 23:43:00,
2013-08-22 19:48:00,78.7,70.1,29.90,NNW,344,2.0,5.0,75,0.00,,CLR,0.00,5.00,VWS V14.01,2013-08-22 23:48:00,
2013-08-22 19:53:00,78.2,68.4,29.91,NNW,339,7.0,14.0,72,0.00,,CLR,0.00,0.00,VWS V14.01,2013-08-22 23:53:00,
2013-08-22 19:58:00,78.0,67.4,29.91,NW,311,4.0,8.0,70,0.00,,CLR,0.00,0.00,VWS V14.01,2013-08-22 23:58:00,
2013-08-22 20:03:00,78.0,67.4,29.92,NW,323,3.0,7.0,70,0.00,,CLR,0.00,0.00,VWS V14.01,2013-08-23 00:03:00,
2013-08-22 20:08:00,78.0,67.0,29.92,NW,322,0.0,4.0,69,0.00,,CLR,0.00,0.00,VWS V14.01,2013-08-23 00:08:00,
2013-08-22 20:13:00,77.9,66.9,29.92,NW,322,3.0,6.0,69,0.00,,CLR,0.00,0.00,VWS V14.01,2013-08-23 00:13:00,
2013-08-22 20:18:00,77.7,66.7,29.92,NNW,338,0.0,4.0,69,0.00,,CLR,0.00,0.00,VWS V14.01,2013-08-23 00:18:00,
2013-08-22 20:23:00,77.6,67.1,29.92,NW,323,0.0,4.0,70,0.00,,CLR,0.00,0.00,VWS V14.01,2013-08-23 00:23:00,
2013-08-22 20:28:00,77.4,66.9,29.92,NNW,348,3.0,3.0,70,0.00,,CLR,0.00,0.00,VWS V14.01,2013-08-23 00:28:00,
2013-08-22 20:33:00,77.3,66.8,29.92,NNW,331,0.0,2.0,70,0.00,,CLR,0.00,0.00,VWS V14.01,2013-08-23 00:33:00,
2013-08-22 20:38:00,77.1,66.6,29.92,NNW,331,0.0,0.0,70,0.00,,CLR,0.00,0.00,VWS V14.01,2013-08-23 00:38:00,
2013-08-22 20:43:00,76.9,66.8,29.92,NNW,331,0.0,0.0,71,0.00,,CLR,0.00,0.00,VWS V14.01,2013-08-23 00:43:00,
2013-08-22 20:48:00,76.7,66.6,29.92,NNW,331,0.0,0.0,71,0.00,,CLR,0.00,0.00,VWS V14.01,2013-08-23 00:48:00,
2013-08-22 20:54:00,76.6,66.9,29.92,NNW,331,0.0,0.0,72,0.00,,CLR,0.00,0.00,VWS V14.01,2013-08-23 00:54:00,
2013-08-22 20:59:00,76.3,66.6,29.92,NNW,331,0.0,2.0,72,0.00,,CLR,0.00,0.00,VWS V14.01,2013-08-23 00:59:00,
2013-08-22 21:04:00,76.1,66.8,29.92,NNW,331,0.0,0.0,73,0.00,,CLR,0.00,0.00,VWS V14.01,2013-08-23 01:04:00,
2013-08-22 21:09:00,76.0,66.7,29.92,NNW,330,0.0,1.0,73,0.00,,CLR,0.00,0.00,VWS V14.01,2013-08-23 01:09:00,
2013-08-22 21:14:00,75.8,66.5,29.93,NNW,330,0.0,0.0,73,0.00,,CLR,0.00,0.00,VWS V14.01,2013-08-23 01:14:00,
2013-08-22 21:19:00,75.7,66.8,29.92,NNW,331,0.0,0.0,74,0.00,,CLR,0.00,0.00,VWS V14.01,2013-08-23 01:19:00,
2013-08-22 21:24:00,75.5,66.6,29.93,NNW,331,0.0,0.0,74,0.00,,CLR,0.00,0.00,VWS V14.01,2013-08-23 01:24:00,
2013-08-22 21:29:00,75.3,66.8,29.93,NNW,331,0.0,0.0,75,0.00,,CLR,0.00,0.00,VWS V14.01,2013-08-23 01:29:00,
2013-08-22 21:34:00,75.0,66.6,29.93,NNW,331,0.0,0.0,75,0.00,,CLR,0.00,0.00,VWS V14.01,2013-08-23 01:34:00,
2013-08-22 21:39:00,74.8,66.3,29.93,NNW,331,0.0,0.0,75,0.00,,CLR,0.00,0.00,VWS V14.01,2013-08-23 01:39:00,
2013-08-22 21:44:00,74.6,66.5,29.93,NNW,330,0.0,0.0,76,0.00,,CLR,0.00,0.00,VWS V14.01,2013-08-23 01:44:00,
2013-08-22 21:49:00,74.3,66.6,29.93,NNW,331,0.0,0.0,77,0.00,,CLR,0.00,0.00,VWS V14.01,2013-08-23 01:49:00,
2013-08-22 21:54:00,74.0,66.3,29.93,NNW,331,0.0,0.0,77,0.00,,CLR,0.00,0.00,VWS V14.01,2013-08-23 01:54:00,
2013-08-22 21:59:00,73.7,66.1,29.94,NNW,330,0.0,0.0,77,0.00,,CLR,0.00,0.00,VWS V14.01,2013-08-23 01:59:00,
2013-08-22 22:04:00,73.4,66.1,29.94,NNW,331,0.0,0.0,78,0.00,,CLR,0.00,0.00,VWS V14.01,2013-08-23 02:04:00,
2013-08-22 22:09:00,73.1,66.2,29.94,NNW,331,0.0,0.0,79,0.00,,CLR,0.00,0.00,VWS V14.01,2013-08-23 02:09:00,
2013-08-22 22:14:00,72.8,66.3,29.94,NNW,330,0.0,0.0,80,0.00,,CLR,0.00,0.00,VWS V14.01,2013-08-23 02:14:00,
2013-08-22 22:19:00,72.5,66.3,29.94,NNW,331,0.0,0.0,81,0.00,,CLR,0.00,0.00,VWS V14.01,2013-08-23 02:19:00,
2013-08-22 22:24:00,72.3,66.5,29.94,NNW,330,0.0,0.0,82,0.00,,CLR,0.00,0.00,VWS V14.01,2013-08-23 02:24:00,
2013-08-22 22:29:00,72.0,66.2,29.94,NNW,330,0.0,0.0,82,0.00,,CLR,0.00,0.00,VWS V14.01,2013-08-23 02:29:00,
2013-08-22 22:34:00,71.7,66.3,29.94,NNW,330,0.0,0.0,83,0.00,,CLR,0.00,0.00,VWS V14.01,2013-08-23 02:34:00,
2013-08-22 22:39:00,71.5,66.1,29.94,NNW,331,0.0,0.0,83,0.00,,CLR,0.00,0.00,VWS V14.01,2013-08-23 02:39:00,
2013-08-22 22:44:00,71.3,65.9,29.94,NNW,331,0.0,0.0,83,0.00,,CLR,0.00,0.00,VWS V14.01,2013-08-23 02:44:00,
2013-08-22 22:50:00,71.1,66.0,29.94,NNW,331,0.0,0.0,84,0.00,,CLR,0.00,0.00,VWS V14.01,2013-08-23 02:50:00,
2013-08-22 22:55:00,70.9,65.8,29.94,NNW,331,0.0,0.0,84,0.00,,CLR,0.00,0.00,VWS V14.01,2013-08-23 02:55:00,
2013-08-22 23:00:00,70.7,65.6,29.94,NNW,330,0.0,0.0,84,0.00,,CLR,0.00,0.00,VWS V14.01,2013-08-23 03:00:00,
2013-08-22 23:05:00,70.5,65.8,29.94,NNW,330,0.0,0.0,85,0.00,,CLR,0.00,0.00,VWS V14.01,2013-08-23 03:05:00,
2013-08-22 23:10:00,70.3,65.6,29.94,NNW,331,0.0,0.0,85,0.00,,CLR,0.00,0.00,VWS V14.01,2013-08-23 03:10:00,
2013-08-22 23:15:00,70.1,65.4,29.94,NNW,331,0.0,0.0,85,0.00,,CLR,0.00,0.00,VWS V14.01,2013-08-23 03:15:00,
2013-08-22 23:20:00,70.0,65.6,29.94,NNW,331,0.0,0.0,86,0.00,,CLR,0.00,0.00,VWS V14.01,2013-08-23 03:20:00,
2013-08-22 23:25:00,69.8,65.4,29.94,NNW,331,0.0,0.0,86,0.00,,CLR,0.00,0.00,VWS V14.01,2013-08-23 03:25:00,
2013-08-22 23:30:00,69.7,65.3,29.94,NNW,331,0.0,0.0,86,0.00,,CLR,0.00,0.00,VWS V14.01,2013-08-23 03:30:00,
2013-08-22 23:35:00,69.5,65.1,29.94,NNW,331,0.0,0.0,86,0.00,,CLR,0.00,0.00,VWS V14.01,2013-08-23 03:35:00,
2013-08-22 23:40:00,69.4,65.4,29.95,NNW,330,0.0,0.0,87,0.00,,CLR,0.00,0.00,VWS V14.01,2013-08-23 03:40:00,
2013-08-22 23:45:00,69.2,65.2,29.94,NNW,330,0.0,0.0,87,0.00,,CLR,0.00,0.00,VWS V14.01,2013-08-23 03:45:00,
2013-08-22 23:50:00,69.1,65.1,29.94,NNW,331,0.0,0.0,87,0.00,,CLR,0.00,0.00,VWS V14.01,2013-08-23 03:50:00,
2013-08-22 23:55:00,69.0,65.3,29.94,NNW,331,0.0,0.0,88,0.00,,CLR,0.00,0.00,VWS V14.01,2013-08-23 03:55:00,